Weather History for London, United Kingdom

Change the Weather History Date:

Sunday, October 27, 2013

  Actual Average Record
Temperature  
Mean Temperature 56 °F -  
Max Temperature 62 °F 51 °F 68 °F (2005)
Min Temperature 51 °F 40 °F 33 °F (2003)
Degree Days  
Heating Degree Days 8    
Growing Degree Days 6 (Base 50)    
Moisture  
Dew Point 50 °F    
Average Humidity 78    
Maximum Humidity 94    
Minimum Humidity 54    
Precipitation  
Precipitation 0.00 in - - ()
Sea Level Pressure  
Sea Level Pressure 29.43 in    
Wind  
Wind Speed 15 mph ()    
Max Wind Speed 30 mph    
Max Gust Speed 45 mph    
Visibility 6.5 miles    
Events Rain    
Averages and records for this station are not official NWS values.
T = Trace of Precipitation, MM = Missing Value Source: Averaged Metar Reports

Daily Weather History Graph

Daily Weather History Graph

Search for Another Location

Airport:

Trip Planner

Search our weather history database for the weather conditions in past years. The results will help you decide how hot, cold, wet, or windy it might be!

Date:

Astronomy

Oct. 27, 2013 Rise Set
Actual Time 6:46 AM GMT 4:43 PM GMT
Civil Twilight 6:11 AM GMT 5:18 PM GMT
Nautical Twilight 5:32 AM GMT 5:57 PM GMT
Astronomical Twilight 4:54 AM GMT 6:36 PM GMT
Moon 11:45 PM GMT (10/27) 1:28 PM GMT (10/27)
Length of Visible Light 11h 06m
Length of Day
9h 57m
Last Quarter, 45% of the Moon is Illuminated
Oct 27
Last Quarter
Nov 3
New
Nov 10
First Quarter
Nov 17
Full
Nov 25
Last Quarter

Hourly Weather History & Observations

Time (GMT) Temp. Dew Point Humidity Pressure Visibility Wind Dir Wind Speed Gust Speed Precip Events Conditions
12:20 AM 57.2 °F 55.4 °F 94% 29.47 in 6.2 mi SSW 17.3 mph - N/A Rain Light Rain
12:50 AM 57.2 °F 55.4 °F 94% 29.47 in 6.2 mi SW 13.8 mph - N/A   Scattered Clouds
1:00 AM 57 °F 55 °F 89% 29.49 in 34 mi SSW 17.3 mph - - Rain Rain
1:20 AM 57.2 °F 53.6 °F 88% 29.47 in 6.2 mi SW 15.0 mph - N/A   Scattered Clouds
1:50 AM 55.4 °F 53.6 °F 94% 29.47 in 6.2 mi SW 12.7 mph - N/A Rain Rain
1:20 AM 55.4 °F 51.8 °F 88% 29.47 in 6.2 mi SW 10.4 mph - N/A   Unknown
1:50 AM 55.4 °F 51.8 °F 88% 29.44 in 6.2 mi SW 13.8 mph - N/A   Unknown
2:20 AM 53.6 °F 51.8 °F 94% 29.44 in 6.2 mi SSW 8.1 mph - N/A   Unknown
2:50 AM 55.4 °F 51.8 °F 88% 29.42 in 6.2 mi SSW 9.2 mph - N/A   Partly Cloudy
3:00 AM 54 °F 52 °F 90% 29.42 in 22 mi SSW 10.4 mph - -  
3:20 AM 55.4 °F 51.8 °F 88% 29.42 in 6.2 mi SSW 8.1 mph - N/A   Scattered Clouds
3:50 AM 55.4 °F 51.8 °F 88% 29.39 in 6.2 mi SSW 10.4 mph - N/A   Partly Cloudy
4:20 AM 55.4 °F 51.8 °F 88% 29.39 in 6.2 mi SSW 9.2 mph - N/A   Partly Cloudy
4:50 AM 55.4 °F 51.8 °F 88% 29.36 in - SSW 12.7 mph - N/A   Clear
5:20 AM 55.4 °F 51.8 °F 88% 29.36 in - South 11.5 mph - N/A   Clear
5:50 AM 55.4 °F 51.8 °F 88% 29.33 in 5.6 mi SSW 11.5 mph - N/A Rain Light Rain
6:00 AM 55 °F 52 °F 85% 29.34 in 4 mi South 12.7 mph - - Rain Rain Showers
6:20 AM 53.6 °F 48.2 °F 82% 29.36 in 5.6 mi West 21.9 mph 33.4 mph N/A Rain Light Rain
6:50 AM 53.6 °F 48.2 °F 82% 29.39 in 6.2 mi WSW 19.6 mph - N/A   Partly Cloudy
7:20 AM 51.8 °F 46.4 °F 82% 29.42 in 6.2 mi WSW 16.1 mph - N/A   Partly Cloudy
7:50 AM 53.6 °F 48.2 °F 82% 29.42 in 6.2 mi SW 16.1 mph - N/A   Partly Cloudy
8:20 AM 53.6 °F 48.2 °F 82% 29.42 in 6.2 mi SW 19.6 mph - N/A   Partly Cloudy
8:50 AM 55.4 °F 48.2 °F 77% 29.42 in 6.2 mi SW 17.3 mph - N/A   Partly Cloudy
9:00 AM 56 °F 49 °F 71% 29.42 in 15 mi SSW 19.6 mph - -  
9:20 AM 57.2 °F 50.0 °F 77% 29.42 in 6.2 mi SW 20.7 mph - N/A   Partly Cloudy
9:50 AM 59.0 °F 48.2 °F 67% 29.42 in 6.2 mi WSW 21.9 mph - N/A   Partly Cloudy
10:20 AM 59.0 °F 48.2 °F 67% 29.44 in 6.2 mi SW 23.0 mph 34.5 mph N/A   Partly Cloudy
10:50 AM 59.0 °F 48.2 °F 67% 29.44 in 6.2 mi SW 21.9 mph - N/A   Scattered Clouds
11:20 AM 60.8 °F 48.2 °F 63% 29.44 in 6.2 mi WSW 24.2 mph - N/A   Partly Cloudy
11:50 AM 60.8 °F 48.2 °F 63% 29.42 in 6.2 mi SW 24.2 mph - N/A   Scattered Clouds
12:00 PM 60 °F 48 °F 54% 29.43 in 15 mi SW 24.2 mph - -  
12:20 PM 60.8 °F 46.4 °F 59% 29.44 in 6.2 mi WSW 29.9 mph 44.9 mph N/A   Scattered Clouds
12:50 PM 60.8 °F 46.4 °F 59% 29.44 in 6.2 mi WSW 27.6 mph 39.1 mph N/A   Scattered Clouds
1:20 PM 60.8 °F 48.2 °F 63% 29.44 in 6.2 mi SW 23.0 mph 34.5 mph N/A   Scattered Clouds
1:50 PM 60.8 °F 48.2 °F 63% 29.44 in 6.2 mi WSW 26.5 mph 38.0 mph N/A   Scattered Clouds
2:20 PM 60.8 °F 48.2 °F 63% 29.44 in 6.2 mi WSW 24.2 mph - N/A   Scattered Clouds
2:50 PM 59.0 °F 50.0 °F 72% 29.44 in 6.2 mi SW 23.0 mph 34.5 mph N/A   Scattered Clouds
3:00 PM 60 °F 49 °F 58% 29.46 in 16 mi SW 23.0 mph - -  
3:20 PM 60.8 °F 48.2 °F 63% 29.44 in 6.2 mi WSW 21.9 mph - N/A   Scattered Clouds
3:50 PM 59.0 °F 48.2 °F 67% 29.47 in 6.2 mi SW 26.5 mph - N/A   Scattered Clouds
4:20 PM 59.0 °F 50.0 °F 72% 29.47 in 6.2 mi SW 21.9 mph - N/A   Scattered Clouds
4:50 PM 59.0 °F 48.2 °F 67% 29.47 in 6.2 mi SW 20.7 mph - N/A   Scattered Clouds
5:20 PM 59.0 °F 48.2 °F 67% 29.47 in 6.2 mi SW 21.9 mph - N/A   Partly Cloudy
5:50 PM 59.0 °F 48.2 °F 67% 29.47 in 6.2 mi SW 21.9 mph - N/A   Partly Cloudy
6:00 PM 58 °F 49 °F 63% 29.49 in 12 mi SW 20.7 mph - -  
6:20 PM 57.2 °F 48.2 °F 72% 29.47 in - SW 17.3 mph 28.8 mph N/A   Clear
6:50 PM 57.2 °F 48.2 °F 72% 29.47 in - SW 16.1 mph 29.9 mph N/A   Clear
7:20 PM 57.2 °F 48.2 °F 72% 29.47 in - SW 15.0 mph 26.5 mph N/A   Clear
7:50 PM 55.4 °F 50.0 °F 82% 29.47 in 6.2 mi SSW 11.5 mph - N/A Rain Light Rain
8:20 PM 55.4 °F 51.8 °F 88% 29.44 in 6.2 mi SSW 11.5 mph - N/A Rain Light Rain
8:50 PM 55.4 °F 51.8 °F 88% 29.42 in 3.7 mi SSW 13.8 mph - N/A Rain Rain
9:00 PM 55 °F 52 °F 85% 29.43 in 2 mi SSW 16.1 mph - - Rain Rain Showers
9:20 PM 53.6 °F 51.8 °F 94% 29.42 in 2.8 mi South 10.4 mph - N/A Rain Rain
9:50 PM 53.6 °F 51.8 °F 94% 29.36 in 2.8 mi Variable 4.6 mph - N/A Rain Rain
10:20 PM 53.6 °F 51.8 °F 94% 29.33 in 2.5 mi Variable 3.5 mph - N/A Rain Rain
10:50 PM 55.4 °F 53.6 °F 94% 29.30 in 6.2 mi SSW 10.4 mph - N/A Rain Rain